Year,Month,Day,Hour,Minute,Value (Times are PST for temperature in C)
2007,07,28,00,00,14.00
2007,07,28,00,01,14.00
2007,07,28,00,02,13.90
2007,07,28,00,03,13.90
2007,07,28,00,04,13.90
2007,07,28,00,05,13.90
2007,07,28,00,06,13.90
2007,07,28,00,07,13.90
2007,07,28,00,08,13.90
2007,07,28,00,09,13.90
2007,07,28,00,10,13.90
2007,07,28,00,11,13.80
2007,07,28,00,12,13.80
2007,07,28,00,13,13.80
2007,07,28,00,14,13.80
2007,07,28,00,15,13.80
2007,07,28,00,16,13.80
2007,07,28,00,17,13.80
2007,07,28,00,18,13.70
2007,07,28,00,19,13.70
2007,07,28,00,20,13.70
2007,07,28,00,21,13.70
2007,07,28,00,22,13.70
2007,07,28,00,23,13.70
2007,07,28,00,24,13.70
2007,07,28,00,25,13.70
2007,07,28,00,26,13.70
2007,07,28,00,27,13.70
2007,07,28,00,28,13.70
2007,07,28,00,29,13.70
2007,07,28,00,30,13.70
2007,07,28,00,31,13.70
2007,07,28,00,32,13.60
2007,07,28,00,33,13.60
2007,07,28,00,34,13.60
2007,07,28,00,35,13.60
2007,07,28,00,36,13.60
2007,07,28,00,37,13.60
2007,07,28,00,38,13.60
2007,07,28,00,39,13.60
2007,07,28,00,40,13.60
2007,07,28,00,41,13.60
2007,07,28,00,42,13.60
2007,07,28,00,43,13.60
2007,07,28,00,44,13.60
2007,07,28,00,45,13.50
2007,07,28,00,46,13.50
2007,07,28,00,47,13.50
2007,07,28,00,48,13.50
2007,07,28,00,49,13.50
2007,07,28,00,50,13.50
2007,07,28,00,51,13.50
2007,07,28,00,52,13.50
2007,07,28,00,53,13.50
2007,07,28,00,54,13.40
2007,07,28,00,55,13.40
2007,07,28,00,56,13.40
2007,07,28,00,57,13.40
2007,07,28,00,58,13.40
2007,07,28,00,59,13.40
2007,07,28,01,00,13.40
2007,07,28,01,01,13.30
2007,07,28,01,02,13.30
2007,07,28,01,03,13.30
2007,07,28,01,04,13.30
2007,07,28,01,05,13.30
2007,07,28,01,06,13.30
2007,07,28,01,07,13.30
2007,07,28,01,08,13.30
2007,07,28,01,09,13.30
2007,07,28,01,10,13.30
2007,07,28,01,11,13.30
2007,07,28,01,12,13.30
2007,07,28,01,13,13.30
2007,07,28,01,14,13.30
2007,07,28,01,15,13.30
2007,07,28,01,16,13.30
2007,07,28,01,17,13.30
2007,07,28,01,18,13.30
2007,07,28,01,19,13.30
2007,07,28,01,20,13.30
2007,07,28,01,21,13.30
2007,07,28,01,22,13.30
2007,07,28,01,23,13.30
2007,07,28,01,24,13.30
2007,07,28,01,25,13.30
2007,07,28,01,26,13.30
2007,07,28,01,27,13.30
2007,07,28,01,28,13.30
2007,07,28,01,29,13.30
2007,07,28,01,30,13.30
2007,07,28,01,31,13.30
2007,07,28,01,32,13.30
2007,07,28,01,33,13.30
2007,07,28,01,34,13.20
2007,07,28,01,35,13.20
2007,07,28,01,36,13.20
2007,07,28,01,37,13.20
2007,07,28,01,38,13.20
2007,07,28,01,39,13.20
2007,07,28,01,40,13.20
2007,07,28,01,41,13.20
2007,07,28,01,42,13.20
2007,07,28,01,43,13.20
2007,07,28,01,44,13.10
2007,07,28,01,45,13.10
2007,07,28,01,46,13.10
2007,07,28,01,47,13.10
2007,07,28,01,48,13.10
2007,07,28,01,49,13.10
2007,07,28,01,50,13.10
2007,07,28,01,51,13.10
2007,07,28,01,52,13.10
2007,07,28,01,53,13.10
2007,07,28,01,54,13.10
2007,07,28,01,55,13.10
2007,07,28,01,56,13.10
2007,07,28,01,57,13.10
2007,07,28,01,58,13.10
2007,07,28,01,59,13.10
2007,07,28,02,00,13.10
2007,07,28,02,01,13.10
2007,07,28,02,02,13.10
2007,07,28,02,03,13.10
2007,07,28,02,04,13.10
2007,07,28,02,05,13.10
2007,07,28,02,06,13.10
2007,07,28,02,07,13.10
2007,07,28,02,08,13.10
2007,07,28,02,09,13.10
2007,07,28,02,10,13.10
2007,07,28,02,11,13.00
2007,07,28,02,12,13.00
2007,07,28,02,13,13.00
2007,07,28,02,14,13.00
2007,07,28,02,15,13.00
2007,07,28,02,16,13.00
2007,07,28,02,17,13.00
2007,07,28,02,18,13.00
2007,07,28,02,19,13.00
2007,07,28,02,20,12.90
2007,07,28,02,21,12.90
2007,07,28,02,22,12.90
2007,07,28,02,23,12.90
2007,07,28,02,24,12.90
2007,07,28,02,25,12.90
2007,07,28,02,26,12.90
2007,07,28,02,27,12.90
2007,07,28,02,28,12.90
2007,07,28,02,29,12.90
2007,07,28,02,30,12.90
2007,07,28,02,31,12.90
2007,07,28,02,32,12.80
2007,07,28,02,33,12.80
2007,07,28,02,34,12.80
2007,07,28,02,35,12.80
2007,07,28,02,36,12.80
2007,07,28,02,37,12.80
2007,07,28,02,38,12.80
2007,07,28,02,39,12.80
2007,07,28,02,40,12.80
2007,07,28,02,41,12.80
2007,07,28,02,42,12.80
2007,07,28,02,43,12.80
2007,07,28,02,44,12.80
2007,07,28,02,45,12.80
2007,07,28,02,46,12.80
2007,07,28,02,47,12.80
2007,07,28,02,48,12.80
2007,07,28,02,49,12.70
2007,07,28,02,50,12.70
2007,07,28,02,51,12.70
2007,07,28,02,52,12.70
2007,07,28,02,53,12.70
2007,07,28,02,54,12.60
2007,07,28,02,55,12.60
2007,07,28,02,56,12.60
2007,07,28,02,57,12.60
2007,07,28,02,58,12.60
2007,07,28,02,59,12.60
2007,07,28,03,00,12.60
2007,07,28,03,01,12.50
2007,07,28,03,02,12.50
2007,07,28,03,03,12.50
2007,07,28,03,04,12.50
2007,07,28,03,05,12.50
2007,07,28,03,06,12.50
2007,07,28,03,07,12.50
2007,07,28,03,08,12.50
2007,07,28,03,09,12.50
2007,07,28,03,10,12.40
2007,07,28,03,11,12.40
2007,07,28,03,12,12.40
2007,07,28,03,13,12.40
2007,07,28,03,14,12.40
2007,07,28,03,15,12.40
2007,07,28,03,16,12.40
2007,07,28,03,17,12.40
2007,07,28,03,18,12.40
2007,07,28,03,19,12.30
2007,07,28,03,20,12.30
2007,07,28,03,21,12.30
2007,07,28,03,22,12.30
2007,07,28,03,23,12.30
2007,07,28,03,24,12.30
2007,07,28,03,25,12.30
2007,07,28,03,26,12.30
2007,07,28,03,27,12.30
2007,07,28,03,28,12.30
2007,07,28,03,29,12.30
2007,07,28,03,30,12.30
2007,07,28,03,31,12.30
2007,07,28,03,32,12.30
2007,07,28,03,33,12.30
2007,07,28,03,34,12.30
2007,07,28,03,35,12.30
2007,07,28,03,36,12.30
2007,07,28,03,37,12.30
2007,07,28,03,38,12.20
2007,07,28,03,39,12.20
2007,07,28,03,40,12.20
2007,07,28,03,41,12.20
2007,07,28,03,42,12.20
2007,07,28,03,43,12.20
2007,07,28,03,44,12.20
2007,07,28,03,45,12.20
2007,07,28,03,46,12.20
2007,07,28,03,47,12.20
2007,07,28,03,48,12.20
2007,07,28,03,49,12.30
2007,07,28,03,50,12.30
2007,07,28,03,51,12.30
2007,07,28,03,52,12.30
2007,07,28,03,53,12.30
2007,07,28,03,54,12.30
2007,07,28,03,55,12.30
2007,07,28,03,56,12.30
2007,07,28,03,57,12.30
2007,07,28,03,58,12.30
2007,07,28,03,59,12.30
2007,07,28,04,00,12.30
2007,07,28,04,01,12.30
2007,07,28,04,02,12.30
2007,07,28,04,03,12.30
2007,07,28,04,04,12.30
2007,07,28,04,05,12.30
2007,07,28,04,06,12.30
2007,07,28,04,07,12.30
2007,07,28,04,08,12.30
2007,07,28,04,09,12.30
2007,07,28,04,10,12.30
2007,07,28,04,11,12.30
2007,07,28,04,12,12.30
2007,07,28,04,13,12.30
2007,07,28,04,14,12.30
2007,07,28,04,15,12.30
2007,07,28,04,16,12.30
2007,07,28,04,17,12.30
2007,07,28,04,18,12.30
2007,07,28,04,19,12.30
2007,07,28,04,20,12.30
2007,07,28,04,21,12.30
2007,07,28,04,22,12.30
2007,07,28,04,23,12.20
2007,07,28,04,24,12.20
2007,07,28,04,25,12.20
2007,07,28,04,26,12.20
2007,07,28,04,27,12.20
2007,07,28,04,28,12.20
2007,07,28,04,29,12.20
2007,07,28,04,30,12.20
2007,07,28,04,31,12.20
2007,07,28,04,32,12.20
2007,07,28,04,33,12.20
2007,07,28,04,34,12.20
2007,07,28,04,35,12.20
2007,07,28,04,36,12.20
2007,07,28,04,37,12.20
2007,07,28,04,38,12.20
2007,07,28,04,39,12.20
2007,07,28,04,40,12.20
2007,07,28,04,41,12.20
2007,07,28,04,42,12.20
2007,07,28,04,43,12.20
2007,07,28,04,44,12.30
2007,07,28,04,45,12.30
2007,07,28,04,46,12.30
2007,07,28,04,47,12.30
2007,07,28,04,48,12.30
2007,07,28,04,49,12.30
2007,07,28,04,50,12.30
2007,07,28,04,51,12.30
2007,07,28,04,52,12.30
2007,07,28,04,53,12.30
2007,07,28,04,54,12.30
2007,07,28,04,55,12.30
2007,07,28,04,56,12.30
2007,07,28,04,57,12.30
2007,07,28,04,58,12.30
2007,07,28,04,59,12.40
2007,07,28,05,00,12.40
2007,07,28,05,01,12.40
2007,07,28,05,02,12.40
2007,07,28,05,03,12.40
2007,07,28,05,04,12.40
2007,07,28,05,05,12.40
2007,07,28,05,06,12.40
2007,07,28,05,07,12.40
2007,07,28,05,08,12.40
2007,07,28,05,09,12.40
2007,07,28,05,10,12.40
2007,07,28,05,11,12.40
2007,07,28,05,12,12.40
2007,07,28,05,13,12.40
2007,07,28,05,14,12.40
2007,07,28,05,15,12.40
2007,07,28,05,16,12.40
2007,07,28,05,17,12.40
2007,07,28,05,18,12.40
2007,07,28,05,19,12.50
2007,07,28,05,20,12.50
2007,07,28,05,21,12.50
2007,07,28,05,22,12.50
2007,07,28,05,23,12.50
2007,07,28,05,24,12.50
2007,07,28,05,25,12.60
2007,07,28,05,26,12.60
2007,07,28,05,27,12.60
2007,07,28,05,28,12.70
2007,07,28,05,29,12.70
2007,07,28,05,30,12.70
2007,07,28,05,31,12.70
2007,07,28,05,32,12.70
2007,07,28,05,33,12.70
2007,07,28,05,34,12.80
2007,07,28,05,35,12.80
2007,07,28,05,36,12.80
2007,07,28,05,37,12.80
2007,07,28,05,38,12.80
2007,07,28,05,39,12.80
2007,07,28,05,40,12.80
2007,07,28,05,41,12.80
2007,07,28,05,42,12.80
2007,07,28,05,43,12.90
2007,07,28,05,44,12.90
2007,07,28,05,45,12.90
2007,07,28,05,46,12.90
2007,07,28,05,47,12.90
2007,07,28,05,48,13.00
2007,07,28,05,49,13.00
2007,07,28,05,50,13.00
2007,07,28,05,51,13.00
2007,07,28,05,52,13.00
2007,07,28,05,53,13.00
2007,07,28,05,54,13.00
2007,07,28,05,55,13.10
2007,07,28,05,56,13.10
2007,07,28,05,57,13.10
2007,07,28,05,58,13.10
2007,07,28,05,59,13.10
2007,07,28,06,00,13.10
2007,07,28,06,01,13.20
2007,07,28,06,02,13.20
2007,07,28,06,03,13.20
2007,07,28,06,04,13.20
2007,07,28,06,05,13.20
2007,07,28,06,06,13.20
2007,07,28,06,07,13.20
2007,07,28,06,08,13.20
2007,07,28,06,09,13.20
2007,07,28,06,10,13.20
2007,07,28,06,11,13.20
2007,07,28,06,12,13.20
2007,07,28,06,13,13.20
2007,07,28,06,14,13.20
2007,07,28,06,15,13.20
2007,07,28,06,16,13.20
2007,07,28,06,17,13.20
2007,07,28,06,18,13.20
2007,07,28,06,19,13.20
2007,07,28,06,20,13.30
2007,07,28,06,21,13.30
2007,07,28,06,22,13.30
2007,07,28,06,23,13.30
2007,07,28,06,24,13.30
2007,07,28,06,25,13.30
2007,07,28,06,26,13.30
2007,07,28,06,27,13.30
2007,07,28,06,28,13.30
2007,07,28,06,29,13.30
2007,07,28,06,30,13.30
2007,07,28,06,31,13.40
2007,07,28,06,32,13.40
2007,07,28,06,33,13.40
2007,07,28,06,34,13.40
2007,07,28,06,35,13.40
2007,07,28,06,36,13.40
2007,07,28,06,37,13.40
2007,07,28,06,38,13.50
2007,07,28,06,39,13.50
2007,07,28,06,40,13.50
2007,07,28,06,41,13.50
2007,07,28,06,42,13.50
2007,07,28,06,43,13.50
2007,07,28,06,44,13.50
2007,07,28,06,45,13.50
2007,07,28,06,46,13.50
2007,07,28,06,47,13.50
2007,07,28,06,48,13.40
2007,07,28,06,49,13.40
2007,07,28,06,50,13.40
2007,07,28,06,51,13.40
2007,07,28,06,52,13.40
2007,07,28,06,53,13.40
2007,07,28,06,54,13.40
2007,07,28,06,55,13.40
2007,07,28,06,56,13.40
2007,07,28,06,57,13.40
2007,07,28,06,58,13.40
2007,07,28,06,59,13.40
2007,07,28,07,00,13.40
2007,07,28,07,01,13.40
2007,07,28,07,02,13.40
2007,07,28,07,03,13.40
2007,07,28,07,04,13.40
2007,07,28,07,05,13.40
2007,07,28,07,06,13.40
2007,07,28,07,07,13.40
2007,07,28,07,08,13.40
2007,07,28,07,09,13.40
2007,07,28,07,10,13.40
2007,07,28,07,11,13.40
2007,07,28,07,12,13.40
2007,07,28,07,13,13.40
2007,07,28,07,14,13.40
2007,07,28,07,15,13.40
2007,07,28,07,16,13.40
2007,07,28,07,17,13.40
2007,07,28,07,18,13.40
2007,07,28,07,19,13.40
2007,07,28,07,20,13.50
2007,07,28,07,21,13.50
2007,07,28,07,22,13.50
2007,07,28,07,23,13.50
2007,07,28,07,24,13.50
2007,07,28,07,25,13.50
2007,07,28,07,26,13.60
2007,07,28,07,27,13.60
2007,07,28,07,28,13.60
2007,07,28,07,29,13.60
2007,07,28,07,30,13.70
2007,07,28,07,31,13.70
2007,07,28,07,32,13.70
2007,07,28,07,33,13.70
2007,07,28,07,34,13.70
2007,07,28,07,35,13.70
2007,07,28,07,36,13.70
2007,07,28,07,37,13.80
2007,07,28,07,38,13.90
2007,07,28,07,39,13.90
2007,07,28,07,40,14.00
2007,07,28,07,41,14.10
2007,07,28,07,42,14.10
2007,07,28,07,43,14.20
2007,07,28,07,44,14.20
2007,07,28,07,45,14.40
2007,07,28,07,46,14.50
2007,07,28,07,47,14.70
2007,07,28,07,48,14.80
2007,07,28,07,49,14.90
2007,07,28,07,50,15.00
2007,07,28,07,51,15.20
2007,07,28,07,52,15.30
2007,07,28,07,53,15.40
2007,07,28,07,54,15.50
2007,07,28,07,55,15.70
2007,07,28,07,56,15.70
2007,07,28,07,57,15.80
2007,07,28,07,58,15.80
2007,07,28,07,59,15.80
2007,07,28,08,00,15.90
2007,07,28,08,01,16.00
2007,07,28,08,02,16.10
2007,07,28,08,03,16.10
2007,07,28,08,04,16.10
2007,07,28,08,05,16.10
2007,07,28,08,06,16.10
2007,07,28,08,07,16.20
2007,07,28,08,08,16.20
2007,07,28,08,09,16.20
2007,07,28,08,10,16.20
2007,07,28,08,11,16.30
2007,07,28,08,12,16.30
2007,07,28,08,13,16.40
2007,07,28,08,14,16.40
2007,07,28,08,15,16.40
2007,07,28,08,16,16.50
2007,07,28,08,17,16.60
2007,07,28,08,18,16.70
2007,07,28,08,19,16.80
2007,07,28,08,20,16.90
2007,07,28,08,21,17.00
2007,07,28,08,22,17.10
2007,07,28,08,23,17.10
2007,07,28,08,24,17.10
2007,07,28,08,25,17.10
2007,07,28,08,26,17.20
2007,07,28,08,27,17.20
2007,07,28,08,28,17.20
2007,07,28,08,29,17.20
2007,07,28,08,30,17.20
2007,07,28,08,31,17.10
2007,07,28,08,32,17.10
2007,07,28,08,33,17.10
2007,07,28,08,34,17.10
2007,07,28,08,35,17.10
2007,07,28,08,36,17.10
2007,07,28,08,37,17.10
2007,07,28,08,38,17.10
2007,07,28,08,39,17.10
2007,07,28,08,40,17.10
2007,07,28,08,41,17.20
2007,07,28,08,42,17.20
2007,07,28,08,43,17.30
2007,07,28,08,44,17.40
2007,07,28,08,45,17.50
2007,07,28,08,46,17.60
2007,07,28,08,47,17.80
2007,07,28,08,48,17.90
2007,07,28,08,49,17.90
2007,07,28,08,50,18.00
2007,07,28,08,51,18.10
2007,07,28,08,52,18.20
2007,07,28,08,53,18.20
2007,07,28,08,54,18.20
2007,07,28,08,55,18.20
2007,07,28,08,56,18.20
2007,07,28,08,57,18.30
2007,07,28,08,58,18.30
2007,07,28,08,59,18.30
2007,07,28,09,00,18.20
2007,07,28,09,01,18.20
2007,07,28,09,02,18.10
2007,07,28,09,03,18.00
2007,07,28,09,04,17.90
2007,07,28,09,05,17.90
2007,07,28,09,06,17.90
2007,07,28,09,07,17.90
2007,07,28,09,08,17.80
2007,07,28,09,09,17.80
2007,07,28,09,10,17.80
2007,07,28,09,11,17.70
2007,07,28,09,12,17.70
2007,07,28,09,13,17.70
2007,07,28,09,14,17.70
2007,07,28,09,15,17.60
2007,07,28,09,16,17.60
2007,07,28,09,17,17.60
2007,07,28,09,18,17.60
2007,07,28,09,19,17.50
2007,07,28,09,20,17.50
2007,07,28,09,21,17.50
2007,07,28,09,22,17.50
2007,07,28,09,23,17.40
2007,07,28,09,24,17.50
2007,07,28,09,25,17.50
2007,07,28,09,26,17.50
2007,07,28,09,27,17.50
2007,07,28,09,28,17.60
2007,07,28,09,29,17.70
2007,07,28,09,30,17.80
2007,07,28,09,31,17.90
2007,07,28,09,32,18.00
2007,07,28,09,33,18.10
2007,07,28,09,34,18.20
2007,07,28,09,35,18.20
2007,07,28,09,36,18.30
2007,07,28,09,37,18.40
2007,07,28,09,38,18.50
2007,07,28,09,39,18.60
2007,07,28,09,40,18.60
2007,07,28,09,41,18.60
2007,07,28,09,42,18.60
2007,07,28,09,43,18.60
2007,07,28,09,44,18.70
2007,07,28,09,45,18.80
2007,07,28,09,46,18.90
2007,07,28,09,47,18.90
2007,07,28,09,48,18.90
2007,07,28,09,49,18.90
2007,07,28,09,50,18.90
2007,07,28,09,51,19.10
2007,07,28,09,52,19.10
2007,07,28,09,53,19.10
2007,07,28,09,54,19.10
2007,07,28,09,55,19.10
2007,07,28,09,56,19.10
2007,07,28,09,57,19.20
2007,07,28,09,58,19.40
2007,07,28,09,59,19.50
2007,07,28,10,00,19.60
2007,07,28,10,01,19.70
2007,07,28,10,02,19.70
2007,07,28,10,03,19.70
2007,07,28,10,04,19.80
2007,07,28,10,05,19.90
2007,07,28,10,06,19.90
2007,07,28,10,07,19.80
2007,07,28,10,08,19.80
2007,07,28,10,09,19.80
2007,07,28,10,10,19.80
2007,07,28,10,11,19.80
2007,07,28,10,12,19.80
2007,07,28,10,13,19.90
2007,07,28,10,14,19.80
2007,07,28,10,15,19.80
2007,07,28,10,16,19.80
2007,07,28,10,17,19.70
2007,07,28,10,18,19.70
2007,07,28,10,19,19.70
2007,07,28,10,20,19.70
2007,07,28,10,21,19.60
2007,07,28,10,22,19.60
2007,07,28,10,23,19.60
2007,07,28,10,24,19.70
2007,07,28,10,25,19.70
2007,07,28,10,26,19.80
2007,07,28,10,27,19.90
2007,07,28,10,28,19.90
2007,07,28,10,29,20.10
2007,07,28,10,30,20.10
2007,07,28,10,31,20.10
2007,07,28,10,32,20.20
2007,07,28,10,33,20.20
2007,07,28,10,34,20.20
2007,07,28,10,35,20.20
2007,07,28,10,36,20.20
2007,07,28,10,37,20.10
2007,07,28,10,38,20.00
2007,07,28,10,39,19.90
2007,07,28,10,40,19.80
2007,07,28,10,41,19.80
2007,07,28,10,42,19.80
2007,07,28,10,43,19.80
2007,07,28,10,44,19.80
2007,07,28,10,45,19.90
2007,07,28,10,46,19.90
2007,07,28,10,47,19.90
2007,07,28,10,48,20.00
2007,07,28,10,49,20.10
2007,07,28,10,50,20.20
2007,07,28,10,51,20.20
2007,07,28,10,52,20.30
2007,07,28,10,53,20.50
2007,07,28,10,54,20.50
2007,07,28,10,55,20.70
2007,07,28,10,56,20.70
2007,07,28,10,57,20.80
2007,07,28,10,58,20.90
2007,07,28,10,59,21.00
2007,07,28,11,00,21.10
2007,07,28,11,01,21.10
2007,07,28,11,02,21.20
2007,07,28,11,03,21.30
2007,07,28,11,04,21.30
2007,07,28,11,05,21.30
2007,07,28,11,06,21.40
2007,07,28,11,07,21.30
2007,07,28,11,08,21.30
2007,07,28,11,09,21.40
2007,07,28,11,10,21.40
2007,07,28,11,11,21.50
2007,07,28,11,12,21.60
2007,07,28,11,13,21.60
2007,07,28,11,14,21.60
2007,07,28,11,15,21.60
2007,07,28,11,16,21.60
2007,07,28,11,17,21.60
2007,07,28,11,18,21.60
2007,07,28,11,19,21.60
2007,07,28,11,20,21.50
2007,07,28,11,21,21.40
2007,07,28,11,22,21.40
2007,07,28,11,23,21.40
2007,07,28,11,24,21.40
2007,07,28,11,25,21.60
2007,07,28,11,26,21.40
2007,07,28,11,27,21.40
2007,07,28,11,28,21.40
2007,07,28,11,29,21.40
2007,07,28,11,30,21.40
2007,07,28,11,31,21.30
2007,07,28,11,32,21.20
2007,07,28,11,33,21.30
2007,07,28,11,34,21.30
2007,07,28,11,35,21.30
2007,07,28,11,36,21.30
2007,07,28,11,37,21.30
2007,07,28,11,38,21.30
2007,07,28,11,39,21.30
2007,07,28,11,40,21.40
2007,07,28,11,41,21.60
2007,07,28,11,42,21.60
2007,07,28,11,43,21.60
2007,07,28,11,44,21.60
2007,07,28,11,45,21.70
2007,07,28,11,46,21.70
2007,07,28,11,47,21.60
2007,07,28,11,48,21.60
2007,07,28,11,49,21.60
2007,07,28,11,50,21.60
2007,07,28,11,51,21.40
2007,07,28,11,52,21.40
2007,07,28,11,53,21.30
2007,07,28,11,54,21.30
2007,07,28,11,55,21.30
2007,07,28,11,56,21.20
2007,07,28,11,57,21.20
2007,07,28,11,58,21.20
2007,07,28,11,59,21.20
2007,07,28,12,00,21.30
2007,07,28,12,01,21.30
2007,07,28,12,02,21.30
2007,07,28,12,03,21.50
2007,07,28,12,04,21.60
2007,07,28,12,05,21.60
2007,07,28,12,06,21.60
2007,07,28,12,07,21.60
2007,07,28,12,08,21.60
2007,07,28,12,09,21.60
2007,07,28,12,10,21.60
2007,07,28,12,11,21.70
2007,07,28,12,12,21.70
2007,07,28,12,13,21.80
2007,07,28,12,14,21.90
2007,07,28,12,15,21.90
2007,07,28,12,16,22.00
2007,07,28,12,17,22.10
2007,07,28,12,18,22.30
2007,07,28,12,19,22.40
2007,07,28,12,20,22.40
2007,07,28,12,21,22.30
2007,07,28,12,22,22.40
2007,07,28,12,23,22.40
2007,07,28,12,24,22.50
2007,07,28,12,25,22.40
2007,07,28,12,26,22.50
2007,07,28,12,27,22.50
2007,07,28,12,28,22.60
2007,07,28,12,29,22.70
2007,07,28,12,30,22.60
2007,07,28,12,31,22.60
2007,07,28,12,32,22.60
2007,07,28,12,33,22.50
2007,07,28,12,34,22.60
2007,07,28,12,35,22.50
2007,07,28,12,36,22.50
2007,07,28,12,37,22.40
2007,07,28,12,38,22.30
2007,07,28,12,39,22.20
2007,07,28,12,40,22.30
2007,07,28,12,41,22.40
2007,07,28,12,42,22.50
2007,07,28,12,43,22.60
2007,07,28,12,44,22.70
2007,07,28,12,45,22.90
2007,07,28,12,46,22.90
2007,07,28,12,47,22.90
2007,07,28,12,48,22.90
2007,07,28,12,49,22.80
2007,07,28,12,50,22.50
2007,07,28,12,51,22.40
2007,07,28,12,52,22.30
2007,07,28,12,53,22.30
2007,07,28,12,54,22.10
2007,07,28,12,55,22.10
2007,07,28,12,56,22.00
2007,07,28,12,57,21.90
2007,07,28,12,58,21.90
2007,07,28,12,59,21.90
2007,07,28,13,00,21.90
2007,07,28,13,01,21.90
2007,07,28,13,02,21.80
2007,07,28,13,03,21.80
2007,07,28,13,04,21.70
2007,07,28,13,05,21.70
2007,07,28,13,06,21.60
2007,07,28,13,07,21.70
2007,07,28,13,08,21.80
2007,07,28,13,09,21.80
2007,07,28,13,10,21.80
2007,07,28,13,11,21.60
2007,07,28,13,12,21.50
2007,07,28,13,13,21.60
2007,07,28,13,14,21.50
2007,07,28,13,15,21.40
2007,07,28,13,16,21.40
2007,07,28,13,17,21.40
2007,07,28,13,18,21.30
2007,07,28,13,19,21.40
2007,07,28,13,20,21.30
2007,07,28,13,21,21.30
2007,07,28,13,22,21.30
2007,07,28,13,23,21.50
2007,07,28,13,24,21.60
2007,07,28,13,25,21.60
2007,07,28,13,26,21.70
2007,07,28,13,27,21.60
2007,07,28,13,28,21.70
2007,07,28,13,29,21.70
2007,07,28,13,30,21.80
2007,07,28,13,31,21.80
2007,07,28,13,32,21.90
2007,07,28,13,33,21.90
2007,07,28,13,34,21.90
2007,07,28,13,35,21.80
2007,07,28,13,36,21.80
2007,07,28,13,37,21.60
2007,07,28,13,38,21.60
2007,07,28,13,39,21.60
2007,07,28,13,40,21.60
2007,07,28,13,41,21.40
2007,07,28,13,42,21.30
2007,07,28,13,43,21.20
2007,07,28,13,44,21.20
2007,07,28,13,45,21.30
2007,07,28,13,46,21.40
2007,07,28,13,47,21.50
2007,07,28,13,48,21.60
2007,07,28,13,49,21.60
2007,07,28,13,50,21.70
2007,07,28,13,51,21.80
2007,07,28,13,52,21.80
2007,07,28,13,53,21.90
2007,07,28,13,54,22.00
2007,07,28,13,55,22.00
2007,07,28,13,56,22.10
2007,07,28,13,57,22.10
2007,07,28,13,58,22.00
2007,07,28,13,59,22.00
2007,07,28,14,00,22.00
2007,07,28,14,01,21.70
2007,07,28,14,02,21.50
2007,07,28,14,03,21.40
2007,07,28,14,04,21.30
2007,07,28,14,05,21.10
2007,07,28,14,06,20.90
2007,07,28,14,07,20.80
2007,07,28,14,08,20.70
2007,07,28,14,09,20.50
2007,07,28,14,10,20.50
2007,07,28,14,11,20.30
2007,07,28,14,12,20.30
2007,07,28,14,13,20.30
2007,07,28,14,14,20.20
2007,07,28,14,15,20.20
2007,07,28,14,16,20.30
2007,07,28,14,17,20.40
2007,07,28,14,18,20.50
2007,07,28,14,19,20.50
2007,07,28,14,20,20.40
2007,07,28,14,21,20.40
2007,07,28,14,22,20.40
2007,07,28,14,23,20.30
2007,07,28,14,24,20.20
2007,07,28,14,25,20.20
2007,07,28,14,26,20.30
2007,07,28,14,27,20.40
2007,07,28,14,28,20.40
2007,07,28,14,29,20.40
2007,07,28,14,30,20.40
2007,07,28,14,31,20.40
2007,07,28,14,32,20.20
2007,07,28,14,33,20.20
2007,07,28,14,34,20.20
2007,07,28,14,35,20.00
2007,07,28,14,36,19.80
2007,07,28,14,37,19.70
2007,07,28,14,38,19.60
2007,07,28,14,39,19.50
2007,07,28,14,40,19.40
2007,07,28,14,41,19.30
2007,07,28,14,42,19.20
2007,07,28,14,43,19.20
2007,07,28,14,44,19.20
2007,07,28,14,45,19.20
2007,07,28,14,46,19.30
2007,07,28,14,47,19.40
2007,07,28,14,48,19.40
2007,07,28,14,49,19.40
2007,07,28,14,50,19.40
2007,07,28,14,51,19.40
2007,07,28,14,52,19.50
2007,07,28,14,53,19.50
2007,07,28,14,54,19.60
2007,07,28,14,55,19.60
2007,07,28,14,56,19.60
2007,07,28,14,57,19.60
2007,07,28,14,58,19.60
2007,07,28,14,59,19.60
2007,07,28,15,00,19.70
2007,07,28,15,01,19.70
2007,07,28,15,02,19.80
2007,07,28,15,03,19.80
2007,07,28,15,04,19.80
2007,07,28,15,05,19.70
2007,07,28,15,06,19.70
2007,07,28,15,07,19.80
2007,07,28,15,08,19.80
2007,07,28,15,09,19.90
2007,07,28,15,10,20.10
2007,07,28,15,11,20.20
2007,07,28,15,12,20.20
2007,07,28,15,13,20.30
2007,07,28,15,14,20.40
2007,07,28,15,15,20.50
2007,07,28,15,16,20.50
2007,07,28,15,17,20.40
2007,07,28,15,18,20.40
2007,07,28,15,19,20.40
2007,07,28,15,20,20.50
2007,07,28,15,21,20.50
2007,07,28,15,22,20.60
2007,07,28,15,23,20.60
2007,07,28,15,24,20.70
2007,07,28,15,25,20.80
2007,07,28,15,26,20.80
2007,07,28,15,27,20.80
2007,07,28,15,28,20.90
2007,07,28,15,29,20.80
2007,07,28,15,30,20.80
2007,07,28,15,31,20.80
2007,07,28,15,32,20.80
2007,07,28,15,33,20.80
2007,07,28,15,34,20.90
2007,07,28,15,35,20.90
2007,07,28,15,36,20.90
2007,07,28,15,37,20.90
2007,07,28,15,38,21.00
2007,07,28,15,39,21.00
2007,07,28,15,40,21.20
2007,07,28,15,41,21.20
2007,07,28,15,42,21.20
2007,07,28,15,43,21.10
2007,07,28,15,44,21.10
2007,07,28,15,45,21.10
2007,07,28,15,46,21.10
2007,07,28,15,47,21.10
2007,07,28,15,48,21.10
2007,07,28,15,49,21.10
2007,07,28,15,50,21.10
2007,07,28,15,51,21.20
2007,07,28,15,52,21.30
2007,07,28,15,53,21.30
2007,07,28,15,54,21.30
2007,07,28,15,55,21.20
2007,07,28,15,56,21.10
2007,07,28,15,57,21.10
2007,07,28,15,58,21.00
2007,07,28,15,59,21.00
2007,07,28,16,00,20.90
2007,07,28,16,01,20.80
2007,07,28,16,02,20.80
2007,07,28,16,03,20.80
2007,07,28,16,04,20.80
2007,07,28,16,05,20.80
2007,07,28,16,06,20.80
2007,07,28,16,07,20.80
2007,07,28,16,08,20.80
2007,07,28,16,09,20.90
2007,07,28,16,10,20.90
2007,07,28,16,11,20.90
2007,07,28,16,12,21.00
2007,07,28,16,13,20.90
2007,07,28,16,14,20.90
2007,07,28,16,15,20.80
2007,07,28,16,16,20.70
2007,07,28,16,17,20.60
2007,07,28,16,18,20.60
2007,07,28,16,19,20.60
2007,07,28,16,20,20.50
2007,07,28,16,21,20.40
2007,07,28,16,22,20.30
2007,07,28,16,23,20.30
2007,07,28,16,24,20.30
2007,07,28,16,25,20.30
2007,07,28,16,26,20.30
2007,07,28,16,27,20.30
2007,07,28,16,28,20.30
2007,07,28,16,29,20.30
2007,07,28,16,30,20.30
2007,07,28,16,31,20.20
2007,07,28,16,32,20.10
2007,07,28,16,33,20.00
2007,07,28,16,34,19.90
2007,07,28,16,35,19.90
2007,07,28,16,36,19.90
2007,07,28,16,37,19.90
2007,07,28,16,38,19.90
2007,07,28,16,39,19.90
2007,07,28,16,40,19.90
2007,07,28,16,41,19.90
2007,07,28,16,42,20.10
2007,07,28,16,43,20.10
2007,07,28,16,44,20.10
2007,07,28,16,45,20.10
2007,07,28,16,46,20.10
2007,07,28,16,47,20.10
2007,07,28,16,48,20.10
2007,07,28,16,49,20.10
2007,07,28,16,50,20.10
2007,07,28,16,51,20.10
2007,07,28,16,52,20.10
2007,07,28,16,53,20.10
2007,07,28,16,54,20.20
2007,07,28,16,55,20.20
2007,07,28,16,56,20.20
2007,07,28,16,57,20.20
2007,07,28,16,58,20.20
2007,07,28,16,59,20.20
2007,07,28,17,00,20.10
2007,07,28,17,01,20.10
2007,07,28,17,02,20.10
2007,07,28,17,03,20.10
2007,07,28,17,04,20.20
2007,07,28,17,05,20.20
2007,07,28,17,06,20.20
2007,07,28,17,07,20.20
2007,07,28,17,08,20.20
2007,07,28,17,09,20.20
2007,07,28,17,10,20.20
2007,07,28,17,11,20.20
2007,07,28,17,12,20.20
2007,07,28,17,13,20.20
2007,07,28,17,14,20.20
2007,07,28,17,15,20.20
2007,07,28,17,16,20.20
2007,07,28,17,17,20.20
2007,07,28,17,18,20.20
2007,07,28,17,19,20.20